Weather History for Pittsfield, IL

Change the Weather History Date:

Monday, January 31, 2011

  Actual Average (KUIN) Record (KUIN)
Temperature  
Mean Temperature -3 °C -3 °C  
Max Temperature -1 °C 2 °C 22 °C (1989)
Min Temperature -4 °C -7 °C -25 °C (1996)
Degree Days  
Heating Degree Days 38 38  
Month to date heating degree days 1198  
Since 1 July heating degree days 3386  
Cooling Degree Days 0 0  
Month to date cooling degree days 0  
Year to date cooling degree days 0  
Moisture  
Dew Point -6 °C    
Average Humidity 86    
Maximum Humidity 100    
Minimum Humidity 74    
Precipitation  
Precipitation 0.76 mm 1.27 mm 1.63 mm (1915)
Month to date precipitation 1.52  
Year to date precipitation 1.52  
Sea Level Pressure  
Sea Level Pressure 1022 hPa    
Wind  
Wind Speed 16 km/h (ENE)    
Max Wind Speed 26 km/h    
Max Gust Speed 37 km/h    
Visibility 12 kilometers    
Events Rain , Snow    
T = Trace of Precipitation, MM = Missing Value Source: NWS Daily Summary

Daily Weather History Graph

Daily Weather History Graph

Search for Another Location

Airport:

Trip Planner

Search our weather history database for the weather conditions in past years. The results will help you decide how hot, cold, wet, or windy it might be!

Date:

Astronomy

Jan. 31, 2011 Rise Set
Actual Time 7:11 AM CST 5:21 PM CST
Civil Twilight 6:43 AM CST 5:50 PM CST
Nautical Twilight 6:11 AM CST 6:22 PM CST
Astronomical Twilight 5:39 AM CST 6:54 PM CST
Moon 5:30 AM CST (1/31) 3:15 PM CST (1/31)
Length of Visible Light 11h 06m
Length of Day
10h 09m
Waning Crescent, 5% of the Moon is Illuminated
Jan 31
Waning Crescent
Feb 2
New
Feb 11
First Quarter
Feb 18
Full
Feb 24
Last Quarter

Hourly Weather History & Observations

Time (CST) Temp. Windchill Dew Point Humidity Pressure Visibility Wind Dir Wind Speed Gust Speed Precip Events Conditions
12:06 AM -1.0 °C -5.9 °C -3.0 °C 86% 1024.6 hPa 11.3 km East 16.7 km/h / 4.6 m/s 31.5 km/h / 8.7 m/s N/A   Scattered Clouds
12:26 AM -1.0 °C -5.2 °C -3.0 °C 86% 1024.9 hPa 11.3 km ENE 13.0 km/h / 3.6 m/s 29.6 km/h / 8.2 m/s N/A   Mostly Cloudy
12:46 AM -1.0 °C -6.2 °C -3.0 °C 86% 1025.3 hPa 11.3 km East 18.5 km/h / 5.1 m/s 35.2 km/h / 9.8 m/s N/A   Overcast
1:06 AM -1.0 °C -6.5 °C -3.0 °C 86% 1025.3 hPa 11.3 km East 20.4 km/h / 5.7 m/s 27.8 km/h / 7.7 m/s N/A   Overcast
1:26 AM -1.0 °C -5.6 °C -3.0 °C 86% 1025.3 hPa 11.3 km East 14.8 km/h / 4.1 m/s - N/A   Overcast
1:46 AM -1.0 °C -5.6 °C -3.0 °C 86% 1024.9 hPa 11.3 km ENE 14.8 km/h / 4.1 m/s - N/A   Overcast
2:06 AM -1.0 °C -6.8 °C -4.0 °C 80% 1024.9 hPa 16.1 km East 22.2 km/h / 6.2 m/s 31.5 km/h / 8.7 m/s N/A   Overcast
2:26 AM -2.0 °C -7.5 °C -4.0 °C 86% 1024.6 hPa 16.1 km East 18.5 km/h / 5.1 m/s 35.2 km/h / 9.8 m/s N/A   Mostly Cloudy
2:46 AM -2.0 °C -7.5 °C -5.0 °C 80% 1024.6 hPa 16.1 km ENE 18.5 km/h / 5.1 m/s - N/A   Clear
3:06 AM -3.0 °C -8.4 °C -6.0 °C 80% 1024.6 hPa 16.1 km ENE 16.7 km/h / 4.6 m/s - N/A   Clear
3:26 AM -3.0 °C -8.0 °C -6.0 °C 80% 1024.6 hPa 16.1 km ENE 14.8 km/h / 4.1 m/s - N/A   Clear
3:46 AM -3.0 °C -8.0 °C -6.0 °C 80% 1024.6 hPa 16.1 km ENE 14.8 km/h / 4.1 m/s - N/A   Clear
4:06 AM -3.0 °C -8.4 °C -6.0 °C 80% 1024.3 hPa 16.1 km ENE 16.7 km/h / 4.6 m/s 25.9 km/h / 7.2 m/s N/A   Clear
4:26 AM -3.0 °C -8.0 °C -6.0 °C 80% 1024.6 hPa 16.1 km ENE 14.8 km/h / 4.1 m/s - N/A   Clear
4:46 AM -4.0 °C -8.9 °C -6.0 °C 86% 1024.6 hPa 16.1 km ENE 13.0 km/h / 3.6 m/s - N/A   Scattered Clouds
5:06 AM -4.0 °C -8.9 °C -6.0 °C 86% 1024.3 hPa 16.1 km ENE 13.0 km/h / 3.6 m/s - N/A   Mostly Cloudy
5:26 AM -4.0 °C -9.7 °C -7.0 °C 80% 1023.9 hPa 16.1 km ENE 16.7 km/h / 4.6 m/s - N/A   Overcast
5:46 AM -4.0 °C -9.7 °C -7.0 °C 80% 1023.9 hPa 16.1 km ENE 16.7 km/h / 4.6 m/s 27.8 km/h / 7.7 m/s N/A   Overcast
6:06 AM -4.0 °C -10.0 °C -7.0 °C 80% 1023.6 hPa 16.1 km ENE 18.5 km/h / 5.1 m/s 25.9 km/h / 7.2 m/s N/A   Overcast
6:26 AM -4.0 °C -9.7 °C -7.0 °C 80% 1023.9 hPa 16.1 km ENE 16.7 km/h / 4.6 m/s 27.8 km/h / 7.7 m/s N/A   Overcast
6:46 AM -4.0 °C -10.3 °C -7.0 °C 80% 1023.6 hPa 16.1 km NE 20.4 km/h / 5.7 m/s - N/A   Overcast
7:06 AM -4.0 °C -9.3 °C -7.0 °C 80% 1023.6 hPa 16.1 km ENE 14.8 km/h / 4.1 m/s 31.5 km/h / 8.7 m/s N/A   Overcast
7:27 AM -4.0 °C -10.3 °C -7.0 °C 80% 1023.6 hPa 16.1 km NE 20.4 km/h / 5.7 m/s 29.6 km/h / 8.2 m/s N/A   Overcast
7:46 AM -4.0 °C -10.3 °C -7.0 °C 80% 1022.9 hPa 16.1 km ENE 20.4 km/h / 5.7 m/s 31.5 km/h / 8.7 m/s N/A   Overcast
8:06 AM -4.0 °C -8.4 °C -8.0 °C 74% 1023.6 hPa 16.1 km East 11.1 km/h / 3.1 m/s - N/A   Overcast
8:26 AM -4.0 °C -10.3 °C -8.0 °C 74% 1023.2 hPa 16.1 km East 20.4 km/h / 5.7 m/s 29.6 km/h / 8.2 m/s N/A   Overcast
8:46 AM -4.0 °C -10.6 °C -8.0 °C 74% 1022.9 hPa 16.1 km ENE 22.2 km/h / 6.2 m/s 37.0 km/h / 10.3 m/s N/A   Overcast
9:06 AM -4.0 °C -10.3 °C -8.0 °C 74% 1022.6 hPa 16.1 km ENE 20.4 km/h / 5.7 m/s 35.2 km/h / 9.8 m/s N/A   Overcast
9:26 AM -4.0 °C -10.0 °C -7.0 °C 80% 1022.2 hPa 16.1 km ENE 18.5 km/h / 5.1 m/s 33.3 km/h / 9.3 m/s N/A   Overcast
9:46 AM -4.0 °C -10.0 °C -7.0 °C 80% 1022.6 hPa 16.1 km ENE 18.5 km/h / 5.1 m/s - N/A   Overcast
10:06 AM -4.0 °C -9.3 °C -7.0 °C 80% 1023.6 hPa 16.1 km East 14.8 km/h / 4.1 m/s - N/A   Overcast
10:26 AM -4.0 °C -10.3 °C -7.0 °C 80% 1021.9 hPa 11.3 km ENE 20.4 km/h / 5.7 m/s - N/A Snow Light Snow
10:46 AM -4.0 °C -9.3 °C -6.0 °C 86% 1022.6 hPa 11.3 km East 14.8 km/h / 4.1 m/s - 0.3 mm Rain Light Freezing Rain
11:06 AM -4.0 °C -10.3 °C -6.0 °C 86% 1021.2 hPa 11.3 km ENE 20.4 km/h / 5.7 m/s - N/A Rain Light Freezing Rain
11:26 AM -4.0 °C -10.6 °C -6.0 °C 86% 1020.5 hPa 11.3 km ENE 22.2 km/h / 6.2 m/s 27.8 km/h / 7.7 m/s N/A   Overcast
11:46 AM -4.0 °C -11.1 °C -6.0 °C 86% 1020.5 hPa 16.1 km ENE 25.9 km/h / 7.2 m/s - N/A   Overcast
12:06 PM -4.0 °C -9.7 °C -6.0 °C 86% 1020.5 hPa 16.1 km NE 16.7 km/h / 4.6 m/s - N/A   Overcast
12:27 PM -4.0 °C -9.3 °C -6.0 °C 86% 1020.2 hPa 16.1 km ENE 14.8 km/h / 4.1 m/s - N/A   Overcast
12:46 PM -4.0 °C -10.0 °C -6.0 °C 86% 1019.5 hPa 16.1 km ENE 18.5 km/h / 5.1 m/s - N/A   Overcast
1:06 PM -3.0 °C -8.8 °C -5.0 °C 86% 1018.8 hPa 11.3 km ENE 18.5 km/h / 5.1 m/s - N/A   Overcast
1:26 PM -4.0 °C -7.8 °C -5.0 °C 93% 1018.5 hPa 4.0 km NE 9.3 km/h / 2.6 m/s 20.4 km/h / 5.7 m/s N/A   Overcast
1:46 PM -4.0 °C -9.7 °C -5.0 °C 93% 1018.5 hPa 6.4 km NE 16.7 km/h / 4.6 m/s - N/A   Overcast
2:06 PM -4.0 °C -9.3 °C -5.0 °C 93% 1018.2 hPa 8.0 km ENE 14.8 km/h / 4.1 m/s - N/A   Overcast
2:26 PM -4.0 °C -8.4 °C -5.0 °C 93% 1018.2 hPa 8.0 km ENE 11.1 km/h / 3.1 m/s - N/A   Overcast
2:46 PM -4.0 °C -8.9 °C -5.0 °C 93% 1017.5 hPa 4.8 km ENE 13.0 km/h / 3.6 m/s - N/A   Overcast
3:06 PM -4.0 °C -8.9 °C -4.0 °C 100% 1017.2 hPa 3.2 km ENE 13.0 km/h / 3.6 m/s - N/A   Overcast
3:26 PM -4.0 °C -8.9 °C -4.0 °C 100% 1017.5 hPa 2.8 km ENE 13.0 km/h / 3.6 m/s - N/A   Light Freezing Rain
3:46 PM -4.0 °C -7.8 °C -4.0 °C 100% 1017.8 hPa 4.0 km NE 9.3 km/h / 2.6 m/s - N/A   Light Freezing Rain
4:06 PM -3.0 °C -7.2 °C -4.0 °C 93% 1017.5 hPa 2.8 km ENE 11.1 km/h / 3.1 m/s - 0.5 mm Rain Light Freezing Rain
4:29 PM -3.0 °C -7.2 °C -4.0 °C 93% 1017.2 hPa 2.0 km ENE 11.1 km/h / 3.1 m/s - 0.5 mm Rain Light Freezing Rain
4:49 PM -3.0 °C -8.0 °C -4.0 °C 93% 1017.2 hPa 3.2 km NE 14.8 km/h / 4.1 m/s - 0.5 mm Rain Light Freezing Rain
5:09 PM -4.0 °C -7.8 °C -4.0 °C 100% 1017.5 hPa 6.4 km NNE 9.3 km/h / 2.6 m/s - N/A   Light Freezing Rain
5:29 PM -4.0 °C -9.3 °C -4.0 °C 100% 1017.5 hPa 6.4 km NNE 14.8 km/h / 4.1 m/s - N/A   Overcast
5:49 PM -4.0 °C -8.4 °C -4.0 °C 100% 1017.5 hPa 4.8 km NE 11.1 km/h / 3.1 m/s - N/A   Overcast
6:09 PM -4.0 °C -7.8 °C -4.0 °C 100% 1017.8 hPa 4.8 km NNE 9.3 km/h / 2.6 m/s - N/A   Overcast
6:29 PM -4.0 °C -8.9 °C -4.0 °C 100% 1018.2 hPa 4.8 km NNE 13.0 km/h / 3.6 m/s - N/A   Overcast
6:49 PM -4.0 °C -7.8 °C -4.0 °C 100% 1018.2 hPa 4.0 km NNE 9.3 km/h / 2.6 m/s - N/A   Overcast
7:09 PM -4.0 °C -8.9 °C -4.0 °C 100% 1018.2 hPa 4.0 km NNE 13.0 km/h / 3.6 m/s - N/A   Light Freezing Rain
7:29 PM -4.0 °C -9.3 °C -4.0 °C 100% 1018.2 hPa 4.8 km NNE 14.8 km/h / 4.1 m/s - N/A   Overcast
7:49 PM -4.0 °C -8.4 °C -4.0 °C 100% 1017.8 hPa 4.0 km NNE 11.1 km/h / 3.1 m/s - N/A   Overcast
8:09 PM -4.0 °C -8.4 °C -4.0 °C 100% 1017.8 hPa 4.8 km NNE 11.1 km/h / 3.1 m/s - N/A   Overcast
8:29 PM -4.0 °C -7.8 °C -4.0 °C 100% 1017.8 hPa 4.8 km NNE 9.3 km/h / 2.6 m/s - N/A   Overcast
8:49 PM -4.0 °C -8.9 °C -4.0 °C 100% 1018.2 hPa 4.8 km North 13.0 km/h / 3.6 m/s - N/A   Overcast
9:09 PM -4.0 °C -8.9 °C -4.0 °C 100% 1018.2 hPa 4.8 km NNE 13.0 km/h / 3.6 m/s - N/A   Overcast
9:29 PM -4.0 °C -9.3 °C -4.0 °C 100% 1018.5 hPa 6.4 km NNE 14.8 km/h / 4.1 m/s - N/A   Overcast
9:49 PM -4.0 °C -8.4 °C -4.0 °C 100% 1018.5 hPa 6.4 km NNE 11.1 km/h / 3.1 m/s - N/A   Overcast
10:10 PM -4.0 °C -8.9 °C -5.0 °C 93% 1018.5 hPa 6.4 km NNE 13.0 km/h / 3.6 m/s - N/A   Overcast
10:29 PM -5.0 °C -9.6 °C -5.0 °C 100% 1018.2 hPa 6.4 km NNE 11.1 km/h / 3.1 m/s - N/A   Overcast
10:49 PM -5.0 °C -10.5 °C -5.0 °C 100% 1018.5 hPa 6.4 km NNE 14.8 km/h / 4.1 m/s - N/A   Overcast
11:09 PM -5.0 °C -9.6 °C -5.0 °C 100% 1018.5 hPa 6.4 km NNE 11.1 km/h / 3.1 m/s - N/A   Overcast
11:29 PM -5.0 °C -9.0 °C -5.0 °C 100% 1018.8 hPa 6.4 km North 9.3 km/h / 2.6 m/s - N/A   Overcast
11:49 PM -5.0 °C -9.6 °C -6.0 °C 93% 1019.2 hPa 6.4 km NNE 11.1 km/h / 3.1 m/s - N/A   Overcast